Radiation Dose at Monitoring Post of Fukushima Daini Nuclear Power Station
Date,Time,MP-1(microSv/h),MP-2(microSv/h),MP-3(microSv/h),MP-4(microSv/h),MP-5(microSv/h),MP-6(microSv/h),MP-7(microSv/h),Wind Direction,Wind Velocity(m/s),Rain
2022/12/09,00:00,0.152,0.137,0.213,0.211,0.212,0.120,0.077,northwest,3.0,No
2022/12/09,00:10,0.151,0.137,0.214,0.210,0.211,0.121,0.077,north-northwest,2.9,No
2022/12/09,00:20,0.152,0.137,0.213,0.211,0.212,0.121,0.077,north-northwest,3.3,No
2022/12/09,00:30,0.153,0.137,0.215,0.210,0.211,0.121,0.077,northwest,3.1,No
2022/12/09,00:40,0.152,0.137,0.216,0.211,0.210,0.121,0.077,north-northwest,2.4,No
2022/12/09,00:50,0.153,0.138,0.214,0.210,0.212,0.120,0.078,northwest,2.4,No
2022/12/09,01:00,0.152,0.137,0.215,0.211,0.212,0.120,0.077,northwest,2.1,No
2022/12/09,01:10,0.152,0.136,0.214,0.210,0.211,0.120,0.076,west-northwest,1.7,No
2022/12/09,01:20,0.153,0.137,0.214,0.210,0.211,0.121,0.078,west-northwest,1.0,No
2022/12/09,01:30,0.152,0.137,0.213,0.209,0.212,0.121,0.077,west-northwest,0.9,No
2022/12/09,01:40,0.152,0.138,0.214,0.210,0.212,0.121,0.077,northwest,0.8,No
2022/12/09,01:50,0.152,0.136,0.214,0.210,0.213,0.121,0.077,west-northwest,1.6,No
2022/12/09,02:00,0.154,0.137,0.214,0.210,0.212,0.120,0.077,northwest,1.0,No
2022/12/09,02:10,0.152,0.137,0.215,0.211,0.211,0.120,0.077,northwest,1.2,No
2022/12/09,02:20,0.152,0.137,0.214,0.211,0.212,0.120,0.077,northwest,1.2,No
2022/12/09,02:30,0.152,0.137,0.214,0.209,0.213,0.121,0.077,north-northwest,1.4,No
2022/12/09,02:40,0.153,0.137,0.216,0.211,0.211,0.121,0.078,northwest,1.1,No
2022/12/09,02:50,0.154,0.138,0.214,0.210,0.212,0.120,0.077,west-northwest,1.4,No
2022/12/09,03:00,0.151,0.137,0.214,0.211,0.213,0.121,0.077,west-northwest,1.3,No
2022/12/09,03:10,0.152,0.138,0.213,0.210,0.212,0.120,0.077,west-northwest,1.3,No
2022/12/09,03:20,0.153,0.138,0.215,0.211,0.212,0.121,0.077,northwest,1.0,No
2022/12/09,03:30,0.153,0.136,0.213,0.212,0.212,0.121,0.076,-,CALM,No
2022/12/09,03:40,0.152,0.136,0.214,0.210,0.211,0.121,0.077,-,CALM,No
2022/12/09,03:50,0.152,0.138,0.214,0.210,0.212,0.121,0.077,west-northwest,0.8,No
2022/12/09,04:00,0.152,0.137,0.214,0.210,0.211,0.120,0.078,-,CALM,No
2022/12/09,04:10,0.151,0.137,0.214,0.210,0.211,0.121,0.077,west,0.9,No
2022/12/09,04:20,0.153,0.137,0.213,0.211,0.212,0.120,0.077,west-northwest,0.9,No
2022/12/09,04:30,0.153,0.138,0.215,0.209,0.212,0.121,0.077,west-northwest,0.6,No
2022/12/09,04:40,0.151,0.138,0.214,0.210,0.211,0.121,0.078,west-southwest,1.0,No
2022/12/09,04:50,0.152,0.137,0.213,0.209,0.212,0.120,0.077,west-southwest,1.3,No
2022/12/09,05:00,0.153,0.136,0.214,0.210,0.211,0.120,0.077,west-southwest,2.1,No
2022/12/09,05:10,0.153,0.137,0.215,0.211,0.211,0.121,0.077,west-southwest,2.9,No
2022/12/09,05:20,0.151,0.136,0.213,0.210,0.211,0.121,0.078,west-northwest,2.2,No
2022/12/09,05:30,0.152,0.137,0.214,0.210,0.211,0.121,0.078,west-northwest,2.1,No
2022/12/09,05:40,0.153,0.137,0.215,0.210,0.210,0.120,0.077,northwest,3.4,No
2022/12/09,05:50,0.152,0.137,0.213,0.211,0.212,0.121,0.077,northwest,5.3,No
2022/12/09,06:00,0.152,0.137,0.215,0.211,0.211,0.120,0.077,north-northwest,6.3,No
2022/12/09,06:10,0.152,0.137,0.215,0.210,0.211,0.121,0.077,north-northwest,5.9,No
2022/12/09,06:20,0.153,0.138,0.214,0.209,0.211,0.120,0.078,northwest,5.7,No
2022/12/09,06:30,0.153,0.138,0.213,0.211,0.211,0.121,0.077,northwest,5.8,No
2022/12/09,06:40,0.153,0.137,0.214,0.211,0.211,0.120,0.078,north-northwest,4.1,No
2022/12/09,06:50,0.152,0.137,0.215,0.210,0.211,0.121,0.077,northwest,4.4,No
2022/12/09,07:00,0.152,0.137,0.214,0.210,0.212,0.120,0.078,northwest,3.1,No
2022/12/09,07:10,0.152,0.138,0.214,0.210,0.211,0.120,0.077,northwest,2.4,No
2022/12/09,07:20,0.154,0.137,0.213,0.211,0.211,0.120,0.078,north-northwest,2.7,No
2022/12/09,07:30,0.152,0.138,0.214,0.210,0.212,0.120,0.078,north-northwest,1.6,No
2022/12/09,07:40,0.152,0.137,0.213,0.209,0.210,0.120,0.077,-,CALM,No
2022/12/09,07:50,0.153,0.137,0.214,0.208,0.211,0.120,0.077,-,CALM,No
2022/12/09,08:00,0.152,0.137,0.215,0.209,0.211,0.121,0.076,west-northwest,2.9,No
2022/12/09,08:10,0.151,0.137,0.214,0.210,0.212,0.120,0.077,west,3.0,No
2022/12/09,08:20,0.152,0.137,0.213,0.208,0.211,0.121,0.077,west,2.0,No
2022/12/09,08:30,0.151,0.137,0.214,0.209,0.211,0.121,0.076,west,1.8,No
2022/12/09,08:40,0.152,0.136,0.213,0.210,0.211,0.120,0.077,west-northwest,2.6,No
2022/12/09,08:50,0.151,0.137,0.214,0.208,0.211,0.120,0.077,west-northwest,3.8,No
2022/12/09,09:00,0.152,0.137,0.214,0.210,0.212,0.119,0.077,west-northwest,4.4,No
2022/12/09,09:10,0.152,0.136,0.213,0.209,0.212,0.120,0.077,west-northwest,3.4,No
2022/12/09,09:20,0.152,0.136,0.214,0.209,0.211,0.120,0.077,northwest,4.3,No
2022/12/09,09:30,0.152,0.138,0.214,0.210,0.211,0.120,0.077,northwest,5.0,No
2022/12/09,09:40,0.152,0.137,0.215,0.208,0.211,0.121,0.077,northwest,3.6,No
2022/12/09,09:50,0.152,0.137,0.213,0.210,0.212,0.121,0.077,northwest,3.9,No
2022/12/09,10:00,0.152,0.137,0.213,0.210,0.212,0.121,0.077,north-northwest,4.4,No
2022/12/09,10:10,0.152,0.136,0.214,0.209,0.211,0.120,0.077,north-northwest,4.9,No
2022/12/09,10:20,0.152,0.137,0.214,0.210,0.212,0.120,0.077,north-northwest,4.3,No
2022/12/09,10:30,0.151,0.136,0.212,0.209,0.210,0.120,0.077,north-northwest,3.7,No
2022/12/09,10:40,0.152,0.137,0.213,0.211,0.213,0.121,0.077,north-northwest,4.6,No
2022/12/09,10:50,0.152,0.137,0.211,0.210,0.211,0.121,0.077,north,4.4,No
2022/12/09,11:00,0.151,0.137,0.212,0.211,0.212,0.119,0.077,north,3.4,No
2022/12/09,11:10,0.153,0.137,0.214,0.210,0.211,0.121,0.076,north-northwest,4.1,No
2022/12/09,11:20,0.151,0.136,0.212,0.210,0.211,0.121,0.077,north-northwest,3.4,No
2022/12/09,11:30,0.152,0.138,0.214,0.211,0.211,0.120,0.077,north-northwest,2.5,No
2022/12/09,11:40,0.151,0.136,0.213,0.209,0.210,0.120,0.077,northwest,1.8,No
2022/12/09,11:50,0.152,0.137,0.212,0.210,0.212,0.120,0.077,northwest,2.4,No
2022/12/09,12:00,0.151,0.137,0.214,0.209,0.210,0.121,0.076,northeast,0.8,No
2022/12/09,12:10,0.152,0.136,0.212,0.211,0.213,0.121,0.077,south-southeast,4.1,No
2022/12/09,12:20,0.151,0.137,0.213,0.210,0.210,0.121,0.077,southeast,3.4,No
2022/12/09,12:30,0.152,0.137,0.213,0.210,0.211,0.120,0.077,south-southeast,3.7,No
2022/12/09,12:40,0.151,0.137,0.214,0.209,0.211,0.120,0.078,south-southeast,2.8,No
2022/12/09,12:50,0.150,0.136,0.213,0.210,0.213,0.121,0.077,southeast,3.5,No
2022/12/09,13:00,0.152,0.137,0.214,0.209,0.211,0.121,0.078,south-southeast,2.8,No
2022/12/09,13:10,0.151,0.137,0.215,0.210,0.214,0.122,0.076,south-southeast,3.0,No
2022/12/09,13:20,0.151,0.137,0.214,0.210,0.213,0.121,0.077,south-southeast,2.4,No
2022/12/09,13:30,0.152,0.137,0.214,0.210,0.214,0.121,0.077,southeast,3.9,No
2022/12/09,13:40,0.150,0.137,0.214,0.210,0.211,0.121,0.076,south-southeast,3.2,No
2022/12/09,13:50,0.152,0.136,0.214,0.211,0.213,0.121,0.077,south-southeast,2.8,No
2022/12/09,14:00,0.152,0.136,0.215,0.209,0.209,0.121,0.077,south-southeast,3.6,No
2022/12/09,14:10,0.153,0.136,0.214,0.211,0.212,0.121,0.077,south-southeast,3.2,No
2022/12/09,14:20,0.152,0.137,0.213,0.209,0.210,0.121,0.077,south,2.9,No
2022/12/09,14:30,0.152,0.137,0.214,0.210,0.212,0.121,0.077,south-southeast,2.3,No
2022/12/09,14:40,0.152,0.138,0.214,0.210,0.211,0.120,0.078,south-southeast,2.8,No
2022/12/09,14:50,0.151,0.137,0.213,0.211,0.214,0.120,0.077,south-southeast,2.9,No
2022/12/09,15:00,0.153,0.136,0.215,0.210,0.213,0.120,0.077,south-southeast,3.1,No
2022/12/09,15:10,0.152,0.137,0.215,0.210,0.213,0.120,0.077,south-southeast,2.3,No
2022/12/09,15:20,0.152,0.137,0.213,0.211,0.213,0.121,0.076,south-southeast,3.4,No
2022/12/09,15:30,0.152,0.136,0.214,0.211,0.213,0.121,0.077,south,2.8,No
2022/12/09,15:40,0.152,0.137,0.214,0.210,0.213,0.120,0.077,south,2.8,No
2022/12/09,15:50,0.152,0.137,0.214,0.210,0.213,0.120,0.077,south,3.2,No
2022/12/09,16:00,0.152,0.137,0.213,0.211,0.213,0.121,0.077,south-southwest,0.9,No
2022/12/09,16:10,0.151,0.137,0.214,0.211,0.213,0.121,0.077,south,1.3,No
2022/12/09,16:20,0.152,0.138,0.214,0.210,0.212,0.121,0.076,south,1.2,No
2022/12/09,16:30,0.152,0.137,0.215,0.210,0.211,0.121,0.077,south-southwest,2.6,No
2022/12/09,16:40,0.151,0.138,0.213,0.210,0.212,0.121,0.076,south-southwest,4.1,No
2022/12/09,16:50,0.152,0.137,0.215,0.210,0.211,0.122,0.077,south-southwest,4.5,No
2022/12/09,17:00,0.153,0.138,0.214,0.211,0.211,0.121,0.077,south-southwest,4.0,No
2022/12/09,17:10,0.152,0.137,0.214,0.210,0.212,0.121,0.077,southwest,5.0,No
2022/12/09,17:20,0.152,0.137,0.214,0.210,0.211,0.121,0.077,south-southwest,4.9,No
2022/12/09,17:30,0.152,0.137,0.214,0.212,0.212,0.121,0.077,southwest,4.2,No
2022/12/09,17:40,0.151,0.136,0.214,0.210,0.212,0.122,0.076,southwest,4.4,No
2022/12/09,17:50,0.151,0.138,0.214,0.211,0.211,0.120,0.077,southwest,5.1,No
2022/12/09,18:00,0.151,0.137,0.214,0.211,0.212,0.121,0.077,southwest,4.0,No
2022/12/09,18:10,0.153,0.137,0.214,0.210,0.212,0.121,0.077,southwest,3.6,No
2022/12/09,18:20,0.152,0.137,0.213,0.211,0.211,0.120,0.077,southwest,3.1,No
2022/12/09,18:30,0.152,0.137,0.214,0.211,0.212,0.121,0.077,southwest,3.5,No
2022/12/09,18:40,0.153,0.136,0.213,0.211,0.213,0.120,0.077,southwest,4.5,No
2022/12/09,18:50,0.152,0.137,0.214,0.211,0.212,0.121,0.077,southwest,4.7,No
2022/12/09,19:00,0.153,0.138,0.213,0.210,0.212,0.121,0.076,southwest,5.2,No
2022/12/09,19:10,0.152,0.137,0.214,0.211,0.211,0.121,0.077,southwest,4.4,No
2022/12/09,19:20,0.152,0.137,0.214,0.210,0.212,0.121,0.077,southwest,4.6,No
2022/12/09,19:30,0.152,0.137,0.214,0.210,0.213,0.121,0.077,south-southwest,5.2,No
2022/12/09,19:40,0.152,0.137,0.214,0.211,0.211,0.120,0.077,south-southwest,5.1,No
2022/12/09,19:50,0.152,0.137,0.214,0.212,0.212,0.121,0.077,south-southwest,4.6,No
2022/12/09,20:00,0.152,0.138,0.215,0.210,0.213,0.121,0.077,south-southwest,5.6,No
2022/12/09,20:10,0.152,0.137,0.213,0.210,0.213,0.120,0.077,south-southwest,4.0,No
2022/12/09,20:20,0.153,0.137,0.214,0.211,0.212,0.120,0.077,south-southwest,5.2,No
2022/12/09,20:30,0.152,0.137,0.214,0.211,0.211,0.121,0.077,south-southwest,5.1,No
2022/12/09,20:40,0.152,0.137,0.214,0.211,0.212,0.121,0.077,south-southwest,4.8,No
2022/12/09,20:50,0.152,0.137,0.214,0.211,0.212,0.121,0.077,south-southwest,5.4,No
2022/12/09,21:00,0.152,0.137,0.213,0.211,0.211,0.121,0.077,south-southwest,5.0,No
2022/12/09,21:10,0.152,0.137,0.214,0.211,0.211,0.120,0.077,south-southwest,5.1,No
2022/12/09,21:20,0.152,0.137,0.215,0.210,0.211,0.121,0.078,southwest,5.6,No
2022/12/09,21:30,0.153,0.137,0.214,0.210,0.211,0.121,0.077,south-southwest,5.2,No
2022/12/09,21:40,0.152,0.137,0.214,0.210,0.212,0.121,0.077,south-southwest,5.2,No
2022/12/09,21:50,0.152,0.138,0.214,0.211,0.212,0.121,0.077,south-southwest,5.3,No
2022/12/09,22:00,0.152,0.137,0.214,0.211,0.211,0.120,0.077,southwest,5.0,No
2022/12/09,22:10,0.152,0.137,0.214,0.211,0.212,0.121,0.077,southwest,4.7,No
2022/12/09,22:20,0.152,0.137,0.214,0.211,0.211,0.121,0.077,southwest,4.6,No
2022/12/09,22:30,0.152,0.137,0.214,0.212,0.212,0.121,0.077,southwest,5.1,No
2022/12/09,22:40,0.153,0.136,0.214,0.211,0.211,0.120,0.077,southwest,5.1,No
2022/12/09,22:50,0.152,0.137,0.214,0.210,0.211,0.121,0.077,southwest,4.5,No
2022/12/09,23:00,0.151,0.137,0.214,0.210,0.212,0.121,0.077,west-southwest,4.8,No
2022/12/09,23:10,0.152,0.138,0.214,0.210,0.212,0.120,0.078,west-southwest,4.5,No
2022/12/09,23:20,0.154,0.137,0.213,0.210,0.210,0.121,0.077,west-southwest,4.5,No
2022/12/09,23:30,0.152,0.137,0.213,0.210,0.212,0.121,0.077,west-southwest,4.7,No
2022/12/09,23:40,0.152,0.137,0.215,0.211,0.212,0.121,0.076,west-southwest,4.9,No
2022/12/09,23:50,0.152,0.137,0.214,0.210,0.211,0.121,0.077,west-southwest,5.0,No
